Terminal Aerodrome Forecast
Issued by NWS

Home | Current Version | Previous Version | Text Only | Print | Product List | Glossary On
Versions: 1 2 3 4 5 6 7 8 9 10 11 12 13 14 15 16 17 18
000
FTUS43 KMQT 272300
TAFSAW
TAF
KSAW 272332Z 2800/2824 33009KT P6SM BKN015
     FM280200 30006KT P6SM BKN025
     FM280400 27007KT P6SM SCT050
     FM281000 26007KT P6SM BKN050
     FM281600 30009KT P6SM VCSH BKN030
      AMD LTD TO CLD VIS AND WIND 2803/2811=

USA.gov is the U.S. government's official web portal to all federal, state and local government web resources and services.